When you browse on this site, cookies collect data to enhance your experience and personalize the content and advertising you see.
Visit our Privacy Policy to learn more. By continuing to use the site, you agree to this use of cookies and data.
  • In Austria
  • List of Countries
  • For 7 days
  • Water Temperature
  • Weather Map
  • News
  • Weather Widgets
  • user-avatar
    Login

    Hourly Weather Atotonilco el Grande

    Today, 19 January, Sunday

    Time Temperature Precipitation Wind Pressure Humidity
    00:00 +13°C° 0.1 mm 1 mps 595 mmHg 94%
    01:00 +13°C° 0.1 mm 1 mps 595 mmHg 94%
    02:00 +13°C° 0.1 mm 1 mps 595 mmHg 95%
    03:00 +13°C° 0.2 mm 1 mps 595 mmHg 95%
    04:00 +13°C° 0.2 mm 1 mps 595 mmHg 95%
    05:00 +13°C° 0.2 mm 2 mps 595 mmHg 94%
    06:00 +13°C° 0.3 mm 2 mps 595 mmHg 94%
    07:00 +13°C° 0.3 mm 2 mps 596 mmHg 93%
    08:00 +13°C° 0.3 mm 2 mps 596 mmHg 92%
    09:00 +13°C° 1.1 mm 2 mps 596 mmHg 89%
    10:00 +14°C° 1.1 mm 2 mps 597 mmHg 86%
    11:00 +15°C° 1.1 mm 2 mps 597 mmHg 83%
    12:00 +13°C° 0.8 mm 3 mps 596 mmHg 86%
    13:00 +12°C° 0.8 mm 3 mps 595 mmHg 88%
    14:00 +11°C° 0.8 mm 3 mps 594 mmHg 90%
    15:00 +11°C° 0.1 mm 3 mps 595 mmHg 90%
    16:00 +10°C° 0.1 mm 2 mps 595 mmHg 91%
    17:00 +10°C° 0.1 mm 2 mps 595 mmHg 91%
    18:00 +10°C° 0.2 mm 2 mps 595 mmHg 92%
    19:00 +10°C° 0.2 mm 2 mps 596 mmHg 93%
    20:00 +10°C° 0.2 mm 2 mps 596 mmHg 95%
    21:00 +10°C° 0.6 mm 2 mps 596 mmHg 95%
    22:00 +9°C° 0.6 mm 2 mps 596 mmHg 95%
    23:00 +9°C° 0.6 mm 2 mps 596 mmHg 95%

    Tomorrow, 20 January, Monday

    Time Temperature Precipitation Wind Pressure Humidity
    00:00 +9°C° 0.1 mm 2 mps 596 mmHg 95%
    01:00 +9°C° 0.1 mm 2 mps 596 mmHg 95%
    02:00 +10°C° 0.1 mm 1 mps 596 mmHg 95%
    03:00 +9°C° 0.6 mm 2 mps 596 mmHg 95%
    04:00 +9°C° 0.6 mm 2 mps 596 mmHg 95%
    05:00 +9°C° 0.6 mm 2 mps 596 mmHg 95%
    06:00 +9°C° 0.7 mm 2 mps 597 mmHg 95%
    07:00 +9°C° 0.7 mm 2 mps 597 mmHg 94%
    08:00 +9°C° 0.7 mm 2 mps 598 mmHg 94%
    09:00 +10°C° 0.2 mm 2 mps 598 mmHg 92%
    10:00 +10°C° 0.2 mm 2 mps 598 mmHg 91%
    11:00 +10°C° 0.2 mm 2 mps 598 mmHg 89%
    12:00 +10°C° 0.1 mm 2 mps 597 mmHg 88%
    13:00 +10°C° 0.1 mm 3 mps 597 mmHg 86%
    14:00 +10°C° 0.1 mm 3 mps 596 mmHg 84%
    15:00 +10°C° 0 mm 3 mps 596 mmHg 86%
    16:00 +10°C° 0 mm 2 mps 596 mmHg 88%
    17:00 +9°C° 0 mm 2 mps 596 mmHg 91%
    18:00 +9°C° 0 mm 2 mps 596 mmHg 91%
    19:00 +9°C° 0 mm 2 mps 596 mmHg 91%
    20:00 +8°C° 0 mm 2 mps 596 mmHg 92%
    21:00 +8°C° 0 mm 2 mps 596 mmHg 92%
    22:00 +8°C° 0 mm 2 mps 596 mmHg 93%
    23:00 +8°C° 0 mm 2 mps 596 mmHg 94%

    Day after tomorrow, 21 January, Tuesday

    Time Temperature Precipitation Wind Pressure Humidity
    00:00 +9°C° 0 mm 1 mps 596 mmHg 93%
    01:00 +9°C° 0 mm 1 mps 596 mmHg 92%
    02:00 +9°C° 0 mm 1 mps 595 mmHg 91%
    03:00 +9°C° 0 mm 1 mps 595 mmHg 92%
    04:00 +8°C° 0 mm 1 mps 595 mmHg 93%
    05:00 +8°C° 0 mm 1 mps 594 mmHg 95%
    06:00 +9°C° 0 mm 1 mps 595 mmHg 90%
    07:00 +10°C° 0 mm 1 mps 596 mmHg 86%
    08:00 +10°C° 0 mm 1 mps 596 mmHg 82%
    09:00 +12°C° 0 mm 1 mps 596 mmHg 75%
    10:00 +14°C° 0 mm 1 mps 597 mmHg 68%
    11:00 +15°C° 0 mm 1 mps 597 mmHg 62%
    12:00 +15°C° 0 mm 2 mps 597 mmHg 63%
    13:00 +15°C° 0 mm 2 mps 596 mmHg 65%
    14:00 +14°C° 0 mm 3 mps 595 mmHg 66%
    15:00 +14°C° 0 mm 2 mps 595 mmHg 72%
    16:00 +13°C° 0 mm 2 mps 594 mmHg 78%
    17:00 +12°C° 0 mm 2 mps 593 mmHg 85%
    18:00 +12°C° 0 mm 2 mps 593 mmHg 86%
    19:00 +11°C° 0 mm 1 mps 594 mmHg 87%
    20:00 +11°C° 0 mm 1 mps 594 mmHg 89%
    21:00 +11°C° 0 mm 1 mps 593 mmHg 87%
    22:00 +11°C° 0 mm 1 mps 593 mmHg 86%
    23:00 +11°C° 0 mm 1 mps 593 mmHg 85%

    22 January, Wednesday

    Time Temperature Precipitation Wind Pressure Humidity
    00:00 +10°C° 0 mm 1 mps 593 mmHg 84%
    01:00 +10°C° 0 mm 1 mps 592 mmHg 84%
    02:00 +10°C° 0 mm 1 mps 592 mmHg 83%
    03:00 +10°C° 0 mm 1 mps 591 mmHg 83%
    04:00 +10°C° 0 mm 1 mps 591 mmHg 83%
    05:00 +10°C° 0 mm 1 mps 591 mmHg 83%
    06:00 +12°C° 0 mm 2 mps 592 mmHg 76%
    07:00 +13°C° 0 mm 2 mps 593 mmHg 69%
    08:00 +15°C° 0 mm 2 mps 594 mmHg 62%
    09:00 +17°C° 0 mm 2 mps 594 mmHg 55%
    10:00 +19°C° 0 mm 2 mps 595 mmHg 48%
    11:00 +20°C° 0 mm 3 mps 595 mmHg 40%
    12:00 +21°C° 0 mm 3 mps 595 mmHg 39%
    13:00 +22°C° 0 mm 3 mps 594 mmHg 37%
    14:00 +22°C° 0 mm 3 mps 593 mmHg 35%
    15:00 +20°C° 0 mm 3 mps 593 mmHg 46%
    16:00 +19°C° 0 mm 2 mps 592 mmHg 57%
    17:00 +17°C° 0 mm 2 mps 591 mmHg 69%
    18:00 +16°C° 0 mm 1 mps 591 mmHg 71%
    19:00 +15°C° 0 mm 1 mps 592 mmHg 73%
    20:00 +15°C° 0 mm 1 mps 592 mmHg 75%
    21:00 +14°C° 0 mm 1 mps 592 mmHg 75%
    22:00 +14°C° 0 mm 1 mps 592 mmHg 75%
    23:00 +13°C° 0 mm 0 mps 592 mmHg 76%

    23 January, Thursday

    Time Temperature Precipitation Wind Pressure Humidity
    00:00 +13°C° 0 mm 1 mps 591 mmHg 75%
    01:00 +13°C° 0 mm 1 mps 591 mmHg 75%
    02:00 +13°C° 0 mm 1 mps 590 mmHg 75%
    03:00 +12°C° 0 mm 1 mps 590 mmHg 75%
    04:00 +12°C° 0 mm 1 mps 590 mmHg 75%
    05:00 +12°C° 0 mm 1 mps 590 mmHg 74%
    06:00 +13°C° 0 mm 1 mps 591 mmHg 68%
    07:00 +14°C° 0 mm 1 mps 592 mmHg 62%
    08:00 +15°C° 0 mm 1 mps 593 mmHg 57%
    09:00 +18°C° 0 mm 1 mps 593 mmHg 51%
    10:00 +18°C° 0 mm 2 mps 594 mmHg 46%
    11:00 +19°C° 0 mm 2 mps 594 mmHg 40%
    12:00 +18°C° 0.1 mm 3 mps 593 mmHg 47%
    13:00 +17°C° 0.1 mm 3 mps 592 mmHg 54%
    14:00 +16°C° 0.1 mm 3 mps 591 mmHg 61%
    15:00 +14°C° 0.1 mm 3 mps 591 mmHg 66%
    16:00 +15°C° 0.1 mm 2 mps 590 mmHg 72%
    17:00 +14°C° 0.1 mm 2 mps 590 mmHg 77%
    18:00 +13°C° 0.1 mm 2 mps 590 mmHg 78%
    19:00 +13°C° 0.1 mm 1 mps 590 mmHg 78%
    20:00 +12°C° 0.1 mm 1 mps 590 mmHg 79%
    21:00 +12°C° 0 mm 1 mps 590 mmHg 77%
    22:00 +12°C° 0 mm 1 mps 590 mmHg 75%
    23:00 +12°C° 0 mm 1 mps 590 mmHg 74%

    24 January, Friday

    Time Temperature Precipitation Wind Pressure Humidity
    00:00 +12°C° 0 mm 1 mps 590 mmHg 74%
    01:00 +12°C° 0 mm 1 mps 589 mmHg 75%
    02:00 +11°C° 0 mm 1 mps 589 mmHg 75%
    03:00 +11°C° 0 mm 1 mps 589 mmHg 76%
    04:00 +10°C° 0 mm 1 mps 589 mmHg 76%
    05:00 +10°C° 0 mm 1 mps 589 mmHg 76%
    06:00 +12°C° 0 mm 1 mps 590 mmHg 70%
    07:00 +13°C° 0 mm 1 mps 591 mmHg 64%
    08:00 +15°C° 0 mm 1 mps 592 mmHg 58%
    09:00 +16°C° 0 mm 1 mps 593 mmHg 50%
    10:00 +19°C° 0 mm 1 mps 594 mmHg 42%
    11:00 +21°C° 0 mm 1 mps 594 mmHg 34%
    12:00 +21°C° 0 mm 1 mps 594 mmHg 34%
    13:00 +20°C° 0 mm 2 mps 593 mmHg 34%
    14:00 +21°C° 0 mm 2 mps 593 mmHg 34%
    15:00 +19°C° 0.1 mm 2 mps 592 mmHg 48%
    16:00 +17°C° 0.1 mm 3 mps 592 mmHg 61%
    17:00 +14°C° 0.1 mm 3 mps 591 mmHg 75%
    18:00 +13°C° 0.1 mm 3 mps 591 mmHg 80%
    19:00 +13°C° 0.1 mm 2 mps 592 mmHg 85%
    20:00 +12°C° 0.1 mm 2 mps 592 mmHg 90%
    21:00 +12°C° 0 mm 2 mps 592 mmHg 90%
    22:00 +12°C° 0 mm 2 mps 592 mmHg 90%
    23:00 +10°C° 0 mm 2 mps 592 mmHg 90%
    Show more